Location: *
(45.9500°N, 9.0833°E)
Time: 18:28:02
(UTC+00:00)

BREEZE-M DEB (TANK) - Pass Details

Date: 03 March 2021
Orbit: 308 x 15403 km, 49.5° (Epoch: 15 April)

Event Time Altitude Azimuth Distance (km) Brightness Sun altitude
Rises 19:47:52 0° 290° (WNW) 2,231 6.7 -27.3°
Reaches altitude 10° 19:49:13 10° 293° (WNW) 1,581 5.6 -27.5°
Enters shadow 19:51:26 52° 320° (NW) 789 3.3 -27.9°
